User: anonymous   Login
Location: Prairie State College
(41.5244°N, 87.6382°W)
Time: 12:26:44
(UTC-05:00)
Language:

MSX - Orbit

View from above orbital plane
View from above orbital plane
View from above satellite
View from above satellite

Ground track
Ground track

The orbit data is extracted from the following two-line orbital elements,

1 23851U 96024A   16115.65202789 0.00000100  00000-0  70481-4 0    01
2 23851  98.6888 138.1743 0003004  54.9247 305.0752 13.98039138    00
Epoch (UTC): 24 April 2016 15:38:55
Eccentricity: 0.0003004
inclination: 98.6888°
perigee height: 898 km
apogee height: 903 km
right ascension of ascending node: 138.1743°
argument of perigee: 54.9247°
revolutions per day: 13.98039138
mean anomaly at epoch: 305.0752°
orbit number at epoch: 0

The dashed part of the orbit path shows where the satellite is in the earth's shadow,  

DLR